This is the latest recevied weather packets stored in our database for station/object N8WEL. If no packets are shown the sender has not sent any weather packets the latest 10 day(s).
| Time | Temp. | Humidity | Pressure | Rain* | Wind** | Luminosity | Snow |
|---|---|---|---|---|---|---|---|
| 1777495722 | 15.56° C | 76% | 1007.8 hPa | 0 mm | - | - | - |
| 1777495397 | 15.56° C | 75% | 1007.8 hPa | 0 mm | - | - | - |
| 1777494797 | 15.56° C | 74% | 1007.8 hPa | 0 mm | - | - | - |
| 1777494544 | 16.11° C | 75% | 1008.9 hPa | 0 mm | - | - | - |
| 1777494212 | 16.11° C | 75% | 1008.8 hPa | 0 mm | - | - | - |
| 1777493906 | 16.11° C | 76% | 1008.8 hPa | 0 mm | - | - | - |
| 1777493653 | 16.11° C | 76% | 1007.9 hPa | 0 mm | - | - | - |
| 1777493458 | 16.11° C | 76% | 1007.9 hPa | 0 mm | - | - | - |
| 1777493458 | 16.11° C | 77% | 1007.8 hPa | 0 mm | - | - | - |
| 1777493457 | 15.56° C | 77% | 1007.9 hPa | 0 mm | - | - | - |
| 1777492552 | 15.56° C | 77% | 1009 hPa | 0 mm | - | - | - |
| 1777492551 | 15.56° C | 79% | 1009 hPa | 0 mm | - | - | - |
| 1777492550 | 15.56° C | 80% | 1008.9 hPa | 0 mm | - | - | - |
| 1777492549 | 16.11° C | 79% | 1008.9 hPa | 0 mm | - | - | - |
| 1777492549 | 15.56° C | 79% | 1009 hPa | 0 mm | - | - | - |
| 1777490706 | 15.56° C | 81% | 1009.1 hPa | 0 mm | - | - | - |
| 1777489737 | 14.44° C | 85% | 1008.9 hPa | 0 mm | - | - | - |
| 1777489125 | 13.89° C | 89% | 1008.8 hPa | 0 mm | - | - | - |
| 1777488921 | 13.89° C | 89% | 1008.9 hPa | 0 mm | - | - | - |
| 1777488438 | 13.33° C | 90% | 1008.9 hPa | 0 mm | - | - | - |
| 1777487252 | 13.89° C | 90% | 1008.8 hPa | 0 mm | - | - | - |
| 1777486962 | 13.89° C | 91% | 1008.6 hPa | 0 mm | - | - | - |
| 1777486048 | 13.33° C | 92% | 1008.8 hPa | 0 mm | - | - | - |
| 1777485892 | 12.78° C | 93% | 1009 hPa | 1.52 mm | - | - | - |
| 1777485891 | 12.78° C | 93% | 1008.9 hPa | 1.02 mm | - | - | - |
* Rain latest hour (hover to see other rain measurements)
** Current wind speed in m/s (hover to see current wind gust speed)